AMC-21

Last updated on Sun Nov 16 2025 00:03:41 GMT+0000 (Coordinated Universal Time)

1 33275U 08038B 25319.49267330 .00000044 00000+0 00000+0 0 9999 2 33275 2.3949 82.9014 0003066 157.8996 226.5011 1.00272363 63351
UTC large
Height (km)
Speed (km/s)
/
Latitude / Longitude
Inclination (degrees)
Orbital Period (minutes)
Azimuth
Elevation
Range (km)
Doppler Factor

Next 0 passes for location: London (51.5072 / 0.1276)

Sorry there are no passes over London.